Voltar ao catálogo

TITAN 3C TRANSTAGE DEB

LostHEO
NORAD 34170·DEBRIS·🇺🇸 United States

Lançado Dec 21, 1965 de Cape Canaveral Space Force Station

Loading…

Próximas Passagens (próximas 24 horas)

TLE

ObsoletoSource: Space-Track

Época: Jul 3, 2026, 09:34 UTC

1 34170U 65108DD  26184.39916251  .00000304  00000-0  18062-2 0  9998
2 34170  25.5507  70.4273 5786161 238.0899  52.8001  4.07743777 80838

Acompanhe TITAN 3C TRANSTAGE DEB em tempo real com AllMySat

Download on the App Store